[[{"header":{"parameterUnit":"m.s-1","parameterCategory":1,"la1":30.2991,"la2":30.254,"lo1":-89.0895,"lo2":-89.0444,"dy":0.0017,"dx":0.0017,"nx":28,"ny":28,"refTime":"2025-05-22T03:00:00:Z","depth":0,"parameterNumber":2,"parameterNumberName":"U-component_of_WINDS"},"data":[0,0,0,0,0,0,0,0,0,0,0,0,0,0,0,0,0,0,0,0,0,0,0,0,0,0,0,0,0,0,0,0,0,0,0,0,0,0,0,0,0,0,0,0,0,0,0,0,0,0,0,0,0,0,0,0,0,0,-1.1639,-1.1639,0,-1.1615,-1.1615,-1.1615,-1.1554,-1.1552,-1.1551,-1.155,-1.1527,-1.1528,-1.1528,0,0,0,0,0,0,0,0,0,0,0,0,0,-1.1631,-1.1631,-1.1639,-1.1639,-1.1638,-1.1615,-1.1615,-1.1615,-1.1554,-1.1552,-1.1551,-1.1549,-1.1527,-1.1528,-1.1528,0,0,0,0,0,0,0,0,0,0,0,0,0,-1.1624,-1.1631,-1.1639,-1.1605,-1.1602,-1.1616,-1.1615,-1.1615,-1.1554,-1.1552,-1.155,-1.1548,-1.1527,-1.1527,-1.1528,-1.1573,0,0,-1.1531,-1.1532,0,0,0,0,0,0,0,0,-1.1624,-1.1624,-1.161,-1.1607,-1.1604,-1.1585,-1.1604,-1.1601,-1.1555,-1.1572,-1.155,-1.1547,-1.1548,-1.1547,-1.1547,-1.1572,-1.1571,-1.1531,-1.1532,-1.1532,-1.1532,0,0,0,0,0,0,0,-1.1625,-1.1625,-1.163,-1.161,-1.1606,-1.1591,-1.1588,-1.1603,-1.1572,-1.1571,-1.1566,-1.1564,-1.1546,-1.1546,-1.1546,-1.1571,-1.1531,-1.1532,-1.1533,-1.1533,-1.1631,-1.1632,0,0,0,0,0,0,-1.163,-1.1626,-1.163,-1.1629,-1.1609,-1.1593,-1.1589,-1.1593,-1.1571,-1.1566,-1.1566,-1.1561,-1.1546,-1.1545,-1.1545,-1.1596,-1.1532,-1.1533,-1.1534,-1.1629,-1.1631,-1.1633,0,0,0,0,0,0,-1.163,-1.1631,-1.1631,-1.1626,-1.1625,-1.1595,-1.16,-1.1594,-1.1594,-1.1568,-1.1562,-1.1572,-1.1544,-1.1544,-1.1566,-1.1594,-1.1533,-1.1534,-1.1626,-1.1629,-1.1632,-1.1698,0,0,0,0,0,0,-1.163,-1.1631,-1.1648,-1.1627,-1.1625,-1.1653,-1.1602,-1.1595,-1.1596,-1.159,-1.1572,-1.1567,-1.1543,-1.1565,-1.1567,-1.1594,-1.1535,-1.1624,-1.1628,-1.1631,-1.1693,-1.1703,-1.1711,0,0,0,0,0,-1.163,-1.1668,-1.165,-1.165,-1.1646,-1.1655,-1.1654,-1.1625,-1.1598,-1.1615,-1.1598,-1.1568,-1.1591,-1.1568,-1.157,-1.1597,-1.1622,-1.1626,-1.1631,-1.1689,-1.1701,-1.1711,0,0,0,0,0,0,-1.1695,-1.1665,-1.1644,-1.1676,-1.1668,-1.1645,-1.1665,-1.1639,-1.1639,-1.1633,-1.1597,-1.1594,-1.1621,-1.1611,-1.1587,-1.1639,-1.1601,-1.1606,-1.1645,-1.1656,-1.1664,-1.1666,-1.1536,0,0,0,0,0,-1.1713,-1.1722,-1.1696,-1.1727,-1.1724,-1.1695,-1.1698,-1.1676,-1.1667,-1.1664,-1.1648,-1.164,-1.1645,-1.165,-1.1653,-1.1691,-1.1686,-1.171,-1.1719,-1.1727,-1.1732,-1.175,-1.1761,-1.1648,-1.1648,-1.1648,0,0,-1.175,-1.1735,-1.1743,-1.1739,-1.1731,-1.1742,-1.1693,-1.1707,-1.1714,-1.1666,-1.1686,-1.1674,-1.1663,-1.1693,-1.1706,-1.1686,-1.1762,-1.1733,-1.1739,-1.174,-1.1756,-1.1767,-1.1776,-1.1651,-1.1651,-1.165,0,0,-1.1823,-1.1813,-1.1837,-1.183,-1.1817,-1.1797,-1.1803,-1.1783,-1.1773,-1.1792,-1.1756,-1.1764,-1.1774,-1.1768,-1.1766,-1.1835,-1.1808,-1.1837,-1.1885,-1.1903,-1.1912,-1.1919,-1.1944,-1.1953,-1.1842,-1.1843,-1.1843,0,-1.1872,-1.1886,-1.1853,-1.1869,-1.1868,-1.1824,-1.1848,-1.1842,-1.1831,-1.1832,-1.181,-1.1821,-1.181,-1.1838,-1.1854,-1.1854,-1.186,-1.184,-1.1913,-1.192,-1.1927,-1.195,-1.1959,-1.1846,-1.1846,-1.1845,-1.1845,0,-1.1946,-1.1957,-1.1978,-1.1968,-1.1969,-1.1989,-1.1959,-1.1964,-1.1942,-1.1925,-1.1945,-1.193,-1.193,-1.1934,-1.1913,-1.1958,-1.1946,-1.1919,-1.188,-1.1942,-1.1963,-1.1971,-1.1852,-1.185,-1.1849,-1.1848,0,0,-1.2061,-1.2031,-1.204,-1.2034,-1.2016,-1.2024,-1.2041,-1.204,-1.2045,-1.2039,-1.2052,-1.2061,-1.2035,-1.2033,-1.201,-1.2026,-1.2082,-1.1997,-1.1996,-1.2013,-1.213,-1.2151,-1.2162,-1.2063,-1.2064,-1.2065,-1.2131,0,-1.213,-1.2158,-1.2128,-1.2163,-1.2172,-1.2129,-1.2144,-1.2134,-1.2118,-1.2124,-1.2106,-1.2112,-1.2078,-1.2076,-1.209,-1.2072,-1.2105,-1.2067,-1.2075,-1.2076,-1.2079,-1.2173,-1.2195,-1.2258,-1.2139,-1.214,-1.2141,0,-1.2215,-1.2212,-1.2247,-1.2225,-1.2228,-1.2242,-1.2238,-1.2243,-1.2232,-1.2219,-1.2215,-1.2187,-1.2203,-1.2165,-1.2185,-1.216,-1.2161,-1.2153,-1.2155,-1.2155,-1.2113,-1.2175,-1.2277,-1.2287,-1.2154,-1.2153,-1.2152,0,-1.2295,-1.2299,-1.232,-1.2317,-1.2293,-1.2304,-1.2294,-1.228,-1.2281,-1.2277,-1.2277,-1.2275,-1.2275,-1.2274,-1.2246,-1.2221,-1.227,-1.223,-1.226,-1.226,-1.2272,-1.2272,-1.2376,-1.2273,-1.2273,-1.2273,-1.2273,0,-1.2375,-1.2399,-1.2356,-1.2369,-1.2393,-1.2359,-1.2384,-1.2369,-1.2357,-1.2367,-1.2329,-1.2339,-1.2302,-1.2307,-1.2286,-1.2306,-1.2306,-1.2295,-1.2289,-1.2299,-1.23,-1.23,-1.2295,-1.2275,-1.2275,-1.2274,-1.2274,0,-1.2469,-1.2442,-1.2462,-1.2437,-1.2431,-1.245,-1.2428,-1.2439,-1.242,-1.2432,-1.2433,-1.2403,-1.2408,-1.238,-1.238,-1.2365,-1.2395,-1.2382,-1.2399,-1.2395,-1.2427,-1.2424,-1.2534,-1.2547,-1.2436,-1.2437,-1.2438,0,-1.2523,-1.2539,-1.2515,-1.2519,-1.2511,-1.2517,-1.2517,-1.2483,-1.2485,-1.2471,-1.2484,-1.2485,-1.2484,-1.2494,-1.2472,-1.2471,-1.2457,-1.2496,-1.2457,-1.2466,-1.2458,-1.2457,-1.2459,-1.2504,-1.2506,-1.2507,-1.2508,0,-1.2621,-1.2606,-1.2607,-1.2604,-1.2604,-1.26,-1.2593,-1.2598,-1.2561,-1.2565,-1.2569,-1.2568,-1.2567,-1.2569,-1.2563,-1.2553,-1.2525,-1.252,-1.2527,-1.2537,-1.2546,-1.2541,-1.2422,-1.2518,-1.2517,-1.2516,-1.2516,-1.2515,-1.2696,-1.2708,-1.2693,-1.2695,-1.2686,-1.268,-1.2689,-1.267,-1.2673,-1.2669,-1.2648,-1.2656,-1.2642,-1.2632,-1.2624,-1.263,-1.2611,-1.2621,-1.2624,-1.2627,-1.2633,-1.2545,-1.2629,-1.2628,-1.2628,-1.2628,-1.2627,0,-1.2791,-1.2779,-1.2782,-1.2773,-1.2774,-1.2746,-1.2737,-1.274,-1.2747,-1.2736,-1.2736,-1.274,-1.2741,-1.2719,-1.2717,-1.2725,-1.2712,-1.2726,-1.2725,-1.2723,-1.2649,-1.2643,-1.2737,-1.2737,-1.2737,-1.2737,-1.2737,-1.2737,-1.2841,-1.286,-1.2844,-1.2858,-1.2845,-1.2851,-1.2848,-1.2842,-1.2834,-1.284,-1.284,-1.2825,-1.281,-1.2806,-1.2806,-1.2799,-1.28,-1.2819,-1.2808,-1.2739,-1.2729,-1.2718,-1.2713,-1.2819,-1.2819,-1.2881,-1.2882,-1.2882]},{"header":{"parameterUnit":"m.s-1","parameterCategory":1,"la1":30.2991,"la2":30.254,"lo1":-89.0895,"lo2":-89.0444,"dy":0.0017,"dx":0.0017,"nx":28,"ny":28,"refTime":"2025-05-22T03:00:00:Z","depth":0,"parameterNumber":3,"parameterNumberName":"V-component_of_WINDS"},"data":[0,0,0,0,0,0,0,0,0,0,0,0,0,0,0,0,0,0,0,0,0,0,0,0,0,0,0,0,0,0,0,0,0,0,0,0,0,0,0,0,0,0,0,0,0,0,0,0,0,0,0,0,0,0,0,0,0,0,-2.3014,-2.3015,0,-2.3083,-2.3084,-2.3084,-2.3075,-2.3074,-2.3073,-2.3072,-2.314,-2.3142,-2.3145,0,0,0,0,0,0,0,0,0,0,0,0,0,-2.2873,-2.2876,-2.3014,-2.3015,-2.3016,-2.3083,-2.3084,-2.3085,-2.3075,-2.3074,-2.3072,-2.3071,-2.3139,-2.3142,-2.3145,0,0,0,0,0,0,0,0,0,0,0,0,0,-2.2937,-2.2877,-2.3014,-2.3019,-2.302,-2.3082,-2.3084,-2.3085,-2.3075,-2.3074,-2.3072,-2.307,-2.3137,-2.3142,-2.3146,-2.3206,0,0,-2.3159,-2.3161,0,0,0,0,0,0,0,0,-2.2934,-2.2942,-2.3018,-2.3019,-2.302,-2.3069,-2.3059,-2.3125,-2.3076,-2.3054,-2.3071,-2.307,-2.3117,-2.3123,-2.314,-2.321,-2.3213,-2.3159,-2.3162,-2.3164,-2.3165,0,0,0,0,0,0,0,-2.2929,-2.2939,-2.3041,-2.3019,-2.302,-2.3018,-2.3025,-2.3071,-2.3094,-2.3056,-2.3056,-2.3064,-2.3118,-2.3135,-2.3141,-2.3214,-2.3159,-2.3163,-2.3166,-2.3167,-2.3336,-2.3338,0,0,0,0,0,0,-2.2924,-2.2936,-2.3039,-2.3043,-2.2972,-2.3021,-2.303,-2.3055,-2.3094,-2.3098,-2.3065,-2.3063,-2.3129,-2.3136,-2.3143,-2.3216,-2.3164,-2.3168,-2.317,-2.3334,-2.3337,-2.3339,0,0,0,0,0,0,-2.2921,-2.2933,-2.3036,-2.2989,-2.3002,-2.3026,-2.3054,-2.3057,-2.3075,-2.3101,-2.3105,-2.3079,-2.3128,-2.3137,-2.3191,-2.3218,-2.317,-2.3174,-2.3332,-2.3335,-2.3338,-2.3363,0,0,0,0,0,0,-2.2917,-2.2932,-2.2956,-2.299,-2.3005,-2.3083,-2.3056,-2.306,-2.3083,-2.308,-2.3115,-2.3119,-2.3127,-2.3185,-2.3195,-2.3223,-2.3177,-2.333,-2.3333,-2.3337,-2.3359,-2.3366,-2.3371,0,0,0,0,0,-2.2912,-2.2959,-2.2957,-2.2969,-2.3035,-2.3085,-2.3093,-2.3102,-2.3085,-2.3108,-2.3125,-2.3118,-2.3214,-2.319,-2.3202,-2.3232,-2.3328,-2.3332,-2.3336,-2.3357,-2.3365,-2.3371,0,0,0,0,0,0,-2.2927,-2.2964,-2.2961,-2.3022,-2.305,-2.3083,-2.3113,-2.311,-2.3144,-2.314,-2.3149,-2.3157,-2.3211,-2.3227,-2.32,-2.3292,-2.3269,-2.3275,-2.328,-2.3288,-2.3294,-2.3288,-2.3181,0,0,0,0,0,-2.2937,-2.2975,-2.3005,-2.3056,-2.307,-2.3089,-2.3111,-2.3116,-2.3145,-2.3157,-2.3178,-2.3206,-2.3242,-2.3266,-2.3301,-2.3362,-2.3369,-2.3389,-2.3395,-2.34,-2.3405,-2.3438,-2.3447,-2.3353,-2.3353,-2.3353,0,0,-2.2959,-2.2984,-2.3007,-2.306,-2.3082,-2.312,-2.3099,-2.3141,-2.3169,-2.3163,-2.3215,-2.3231,-2.3263,-2.3321,-2.3347,-2.3336,-2.3433,-2.3405,-2.3409,-2.3411,-2.3443,-2.3452,-2.346,-2.3356,-2.3355,-2.3355,0,0,-2.3017,-2.3041,-2.3085,-2.3108,-2.3143,-2.3156,-2.3166,-2.32,-2.3211,-2.3263,-2.3259,-2.3293,-2.3356,-2.3378,-2.3398,-2.3467,-2.3461,-2.3478,-2.3509,-2.3541,-2.3548,-2.3555,-2.3578,-2.3587,-2.3484,-2.3484,-2.3484,0,-2.304,-2.3098,-2.3108,-2.315,-2.3173,-2.3171,-2.3215,-2.3237,-2.3281,-2.3296,-2.3284,-2.3362,-2.3384,-2.3446,-2.3463,-2.348,-2.3491,-2.3473,-2.3547,-2.3553,-2.356,-2.3582,-2.3591,-2.3485,-2.3485,-2.3485,-2.3485,0,-2.3123,-2.3163,-2.3195,-2.3238,-2.3265,-2.3308,-2.3324,-2.335,-2.3352,-2.3366,-2.3419,-2.3445,-2.3485,-2.3501,-2.3503,-2.3563,-2.3555,-2.3545,-2.352,-2.357,-2.3591,-2.36,-2.3488,-2.3487,-2.3487,-2.3486,0,0,-2.3191,-2.3241,-2.3252,-2.3271,-2.331,-2.3341,-2.3384,-2.3424,-2.3445,-2.3476,-2.3512,-2.3566,-2.3556,-2.3579,-2.3584,-2.3612,-2.3664,-2.3598,-2.3599,-2.3608,-2.373,-2.3737,-2.3747,-2.3661,-2.3663,-2.3664,-2.3727,0,-2.3253,-2.3329,-2.334,-2.3407,-2.3444,-2.3443,-2.348,-2.3507,-2.3522,-2.3555,-2.357,-2.3608,-2.3593,-2.3606,-2.3634,-2.3651,-2.3688,-2.3647,-2.3693,-2.3694,-2.3683,-2.3758,-2.3765,-2.3824,-2.3736,-2.3737,-2.3738,0,-2.3334,-2.3368,-2.3439,-2.3472,-2.3488,-2.3522,-2.3559,-2.3591,-2.3622,-2.3631,-2.3656,-2.3659,-2.3702,-2.3678,-2.3738,-2.371,-2.3729,-2.3741,-2.3743,-2.3746,-2.3718,-2.3762,-2.3843,-2.3851,-2.3751,-2.375,-2.3749,0,-2.3375,-2.3439,-2.3489,-2.3506,-2.3547,-2.357,-2.3588,-2.3618,-2.3641,-2.3674,-2.3689,-2.3726,-2.3746,-2.3775,-2.3787,-2.3768,-2.3846,-2.3823,-2.3853,-2.3853,-2.3868,-2.3867,-2.3952,-2.3883,-2.3883,-2.3883,-2.3883,0,-2.3442,-2.3485,-2.3508,-2.3539,-2.3587,-2.36,-2.3647,-2.3664,-2.369,-2.3724,-2.3726,-2.3757,-2.3772,-2.3805,-2.3815,-2.3863,-2.3872,-2.3879,-2.3881,-2.3878,-2.3877,-2.389,-2.3886,-2.3885,-2.3885,-2.3884,-2.3884,0,-2.3495,-2.3513,-2.3567,-2.3602,-2.3612,-2.3646,-2.3675,-2.3705,-2.3719,-2.3762,-2.3773,-2.3795,-2.3835,-2.385,-2.3898,-2.3905,-2.396,-2.3959,-2.3949,-2.3949,-2.3979,-2.3975,-2.4073,-2.4087,-2.4011,-2.4012,-2.4012,0,-2.3535,-2.3569,-2.3607,-2.363,-2.3649,-2.3686,-2.3711,-2.3724,-2.3749,-2.3787,-2.3812,-2.3852,-2.3884,-2.3948,-2.3968,-2.4005,-2.4004,-2.4036,-2.401,-2.4006,-2.4003,-2.4001,-2.4004,-2.4041,-2.4041,-2.4042,-2.4043,0,-2.3605,-2.3612,-2.3647,-2.3686,-2.3715,-2.3745,-2.3775,-2.3794,-2.3812,-2.384,-2.3881,-2.3906,-2.3956,-2.3995,-2.4033,-2.4051,-2.405,-2.4051,-2.406,-2.4057,-2.4049,-2.4052,-2.3961,-2.4048,-2.4048,-2.4047,-2.4047,-2.4047,-2.3652,-2.3682,-2.3713,-2.3752,-2.3777,-2.3804,-2.3834,-2.3853,-2.3887,-2.3929,-2.3935,-2.3979,-2.401,-2.4061,-2.408,-2.4114,-2.4106,-2.4119,-2.4122,-2.4125,-2.4126,-2.4045,-2.4122,-2.4121,-2.4121,-2.4121,-2.4121,0,-2.3721,-2.3741,-2.3777,-2.3819,-2.385,-2.3848,-2.388,-2.3906,-2.3945,-2.3974,-2.4006,-2.4053,-2.4091,-2.4115,-2.4153,-2.4176,-2.4176,-2.4185,-2.4183,-2.4187,-2.4132,-2.412,-2.4185,-2.4185,-2.4185,-2.4185,-2.4185,-2.4184,-2.376,-2.3809,-2.382,-2.3882,-2.3902,-2.3945,-2.3964,-2.399,-2.4013,-2.4066,-2.4098,-2.4114,-2.414,-2.4181,-2.4216,-2.4222,-2.4235,-2.4245,-2.425,-2.4198,-2.4191,-2.4185,-2.4173,-2.4248,-2.4248,-2.4302,-2.4302,-2.4303]}]]